Home > Weather > Fort Wayne > Past weeks

Flag for USA Past Weather in Fort Wayne, Indiana, USA — Yesterday and Last 2 Weeks

Now
86 °F

Scattered clouds.


Feels Like: 84 °F
Forecast: 68 / 84 °F
Wind: 16 mph from West

Location: Fort Wayne International Airport

Current Time: May 29, 2016 at 7:19:07 PM

Latest Report: May 29, 2016 at 6:54 PM


Visibility: 10 mi

Pressure: 29.94 "Hg

Humidity: 30%

Dew Point: 51 °F

Location of Fort WayneLocation

Past Weather in Fort Wayne — Graph

°F

Fort Wayne Temperature Yesterday

Maximum temperature yesterday: 87 °F (at 2:54 PM)
Minimum temperature yesterday: 70 °F (at 2:54 AM)
Average temperature yesterday: 76 °F

High & Low Weather Summary for the Past Weeks

 TemperatureHumidityPressure
High88 °F (May 29, 1:54 PM)93% (May 19, 3:54 AM)30.24 "Hg (May 19, 3:54 AM)
Low35 °F (May 16, 5:54 AM)17% (May 23, 1:54 PM)29.88 "Hg (May 26, 7:54 PM)
Average63 °F58%30.07 "Hg
* Reported May 14 5:54 PM — May 29 5:54 PM, Fort Wayne, Weather by CustomWeather, © 2016

Note: Actual official high and low records may vary slightly from our data, if they occured in-between our weather recording intervals... More about our weather records

Advertising

Fort Wayne Weather History for the Previous 24 Hours

Scroll right to see more
 ConditionsComfort  
Time TempWeatherWind HumidityBarometerVisibility
5:54 PM
Sun, May 29
88 °FScattered clouds.16 mph26%29.95 "Hg10 mi
4:54 PM88 °FScattered clouds.21 mph30%29.96 "Hg10 mi
3:54 PM88 °FBroken clouds.22 mph34%29.98 "Hg10 mi
2:54 PM88 °FBroken clouds.17 mph39%29.99 "Hg10 mi
1:54 PM88 °FBroken clouds.18 mph40%30.01 "Hg10 mi
12:54 PM86 °FPartly sunny.14 mph45%30.02 "Hg10 mi
11:54 AM83 °FPartly sunny.14 mph55%30.04 "Hg10 mi
10:54 AM80 °FPartly sunny.12 mph62%30.05 "Hg10 mi
9:54 AM77 °FPartly sunny.12 mph71%30.05 "Hg10 mi
8:54 AM75 °FPartly sunny.13 mph76%30.05 "Hg10 mi
7:54 AM71 °FPartly sunny.8 mph84%30.05 "Hg9 mi
6:54 AM68 °FPassing clouds.9 mph90%30.03 "Hg7 mi
5:54 AM68 °FPassing clouds.9 mph90%30.03 "Hg8 mi
4:54 AM68 °FPassing clouds.7 mph90%30.02 "Hg10 mi
3:54 AM68 °FPartly cloudy.8 mph90%30.03 "Hg10 mi
2:54 AM69 °FMostly cloudy.7 mph87%30.03 "Hg10 mi
1:54 AM70 °FMostly cloudy.7 mph87%30.03 "Hg10 mi
12:54 AM69 °FPassing clouds.8 mph87%30.03 "Hg10 mi
11:54 PM
Sat, May 28
70 °FPassing clouds.8 mph84%30.02 "Hg10 mi
10:54 PM72 °FLight rain. Mostly cloudy.10 mph78%30.02 "Hg10 mi
9:54 PM74 °FPartly sunny.12 mph74%30.03 "Hg10 mi
8:54 PM75 °FBroken clouds.15 mph66%30.02 "Hg10 mi
7:54 PM74 °FBroken clouds.15 mph69%30.02 "Hg10 mi
Weather by CustomWeather, © 2016

See weather overviewHow to use our weather pages